Nashville, TN

1:44 PM CDT on June 25, 2018 (GMT -0500)
Nashville International

Weather History for KBNA - September, 2017

Change the Weather History Date:

Wednesday, September 13, 2017

  Actual Average Record
Temperature  
Mean Temperature 62 °F 73 °F  
Max Temperature 64 °F 84 °F 97 °F (1980)
Min Temperature 60 °F 62 °F 41 °F (1902)
Degree Days  
Heating Degree Days 3    
Month to date heating degree days 12  
Since 1 July heating degree days 12  
Cooling Degree Days 0    
Month to date cooling degree days 30  
Year to date cooling degree days 1610  
Growing Degree Days 12 (Base 50)    
Moisture  
Dew Point 59 °F    
Average Humidity 92    
Maximum Humidity 97    
Minimum Humidity 84    
Precipitation  
Precipitation 0.09 in 0.13 in 6.60 in (1979)
Month to date precipitation 2.86 1.40  
Year to date precipitation 39.70 33.65  
Sea Level Pressure  
Sea Level Pressure 29.80 in    
Wind  
Wind Speed 10 mph (South)    
Max Wind Speed 16 mph    
Max Gust Speed 21 mph    
Visibility 8 miles    
Events Rain    
T = Trace of Precipitation, MM = Missing Value Source: NWS Daily Summary

Daily Weather History Graph

Daily Weather History Graph

Search for Another Location

Airport or City:

Astronomy

Sep. 13, 2017 Rise Set
Actual Time 6:27 AM CDT 6:56 PM CDT
Civil Twilight 6:02 AM CDT 7:22 PM CDT
Nautical Twilight 5:31 AM CDT 7:52 PM CDT
Astronomical Twilight 5:00 AM CDT 8:23 PM CDT
Moon No Moon Rise 2:04 PM CDT (9/13)
Length of Visible Light 13h 20m
Length of Day
12h 28m
Last Quarter, 45% of the Moon is Illuminated
Sep 13
Last Quarter
Sep 20
New
Sep 27
First Quarter
Oct 5
Full
Oct 12
Last Quarter

Hourly Weather History & Observations

Time (CDT) Temp. Dew Point Humidity Pressure Visibility Wind Dir Wind Speed Gust Speed Precip Events Conditions
12:11 AM 61.0 °F 59.0 °F 93% 29.76 in 10.0 mi SE 8.1 mph - N/A   Overcast
12:53 AM 61.0 °F 59.0 °F 93% 29.74 in 5.0 mi SE 6.9 mph - 0.00 in Rain Light Rain
1:12 AM 61.0 °F 59.0 °F 93% 29.75 in 10.0 mi SE 6.9 mph - 0.00 in   Overcast
1:19 AM 61.0 °F 59.0 °F 93% 29.75 in 10.0 mi SE 8.1 mph - 0.00 in   Overcast
1:45 AM 61.0 °F 59.0 °F 93% 29.75 in 9.0 mi SSE 5.8 mph - 0.00 in   Overcast
1:53 AM 61.0 °F 59.0 °F 93% 29.74 in 9.0 mi SSE 6.9 mph - 0.00 in   Overcast
2:11 AM 61.0 °F 59.0 °F 93% 29.75 in 4.0 mi SE 9.2 mph - 0.00 in Rain Light Rain
2:34 AM 61.0 °F 59.0 °F 93% 29.75 in 6.0 mi SSE 5.8 mph - 0.01 in Rain Light Rain
2:53 AM 61.0 °F 59.0 °F 93% 29.74 in 4.0 mi SSE 5.8 mph - 0.01 in Rain Light Rain
3:40 AM 60.1 °F 57.9 °F 93% 29.75 in 9.0 mi South 10.4 mph - 0.04 in   Overcast
3:53 AM 60.1 °F 59.0 °F 96% 29.74 in 8.0 mi South 8.1 mph - 0.04 in   Overcast
4:14 AM 60.1 °F 59.0 °F 96% 29.75 in 6.0 mi South 6.9 mph - 0.00 in   Overcast
4:45 AM 60.1 °F 59.0 °F 96% 29.76 in 10.0 mi South 6.9 mph - 0.01 in   Overcast
4:53 AM 60.1 °F 59.0 °F 96% 29.75 in 10.0 mi SSE 8.1 mph - 0.01 in   Overcast
5:28 AM 60.1 °F 57.9 °F 93% 29.76 in 10.0 mi SSE 8.1 mph - N/A   Overcast
5:53 AM 60.1 °F 57.9 °F 93% 29.76 in 10.0 mi South 8.1 mph - N/A   Overcast
6:53 AM 60.1 °F 57.0 °F 90% 29.77 in 10.0 mi South 8.1 mph - N/A   Overcast
7:42 AM 60.1 °F 57.0 °F 90% 29.79 in 10.0 mi South 10.4 mph - N/A   Overcast
7:53 AM 60.1 °F 57.0 °F 90% 29.78 in 10.0 mi South 12.7 mph - N/A   Overcast
8:53 AM 60.1 °F 57.0 °F 90% 29.80 in 10.0 mi South 12.7 mph - N/A   Overcast
9:53 AM 61.0 °F 57.9 °F 90% 29.81 in 8.0 mi South 9.2 mph - 0.00 in   Light Drizzle
10:53 AM 61.0 °F 57.0 °F 87% 29.81 in 10.0 mi South 11.5 mph - 0.00 in   Overcast
11:53 AM 62.1 °F 57.0 °F 84% 29.81 in 10.0 mi South 16.1 mph - N/A   Overcast
12:53 PM 62.1 °F 57.9 °F 86% 29.81 in 10.0 mi South 12.7 mph - 0.00 in   Light Drizzle
1:28 PM 62.1 °F 59.0 °F 90% 29.82 in 2.5 mi South 15.0 mph - 0.00 in   Light Drizzle
1:41 PM 62.1 °F 60.1 °F 93% 29.81 in 2.0 mi South 10.4 mph - 0.00 in Rain Light Rain
1:53 PM 62.1 °F 60.1 °F 93% 29.81 in 2.0 mi South 11.5 mph - 0.01 in   Light Drizzle
2:02 PM 62.1 °F 60.1 °F 93% 29.81 in 3.0 mi South 12.7 mph - 0.00 in   Light Drizzle
2:53 PM 62.1 °F 60.1 °F 93% 29.80 in 3.0 mi South 11.5 mph - 0.00 in   Light Drizzle
3:53 PM 62.1 °F 60.1 °F 93% 29.80 in 5.0 mi South 10.4 mph - 0.02 in Rain Light Rain
4:53 PM 62.1 °F 60.1 °F 93% 29.81 in 8.0 mi South 11.5 mph - 0.00 in   Light Drizzle
4:55 PM 62.1 °F 60.1 °F 93% 29.81 in 10.0 mi South 12.7 mph - 0.00 in   Light Drizzle
5:45 PM 62.1 °F 59.0 °F 90% 29.82 in 10.0 mi South 10.4 mph - 0.00 in   Overcast
5:53 PM 62.1 °F 59.0 °F 90% 29.82 in 10.0 mi South 10.4 mph - 0.00 in   Overcast
6:53 PM 62.1 °F 60.1 °F 93% 29.83 in 10.0 mi South 11.5 mph - N/A   Overcast
7:36 PM 62.1 °F 60.1 °F 93% 29.84 in 10.0 mi SSW 9.2 mph - N/A   Overcast
7:53 PM 62.1 °F 60.1 °F 93% 29.84 in 10.0 mi South 8.1 mph - N/A   Overcast
8:53 PM 63.0 °F 61.0 °F 93% 29.85 in 7.0 mi SSW 8.1 mph - N/A   Overcast
9:53 PM 63.0 °F 61.0 °F 93% 29.86 in 5.0 mi SSW 8.1 mph - 0.00 in   Light Drizzle
10:53 PM 63.0 °F 61.0 °F 93% 29.87 in 8.0 mi SSW 5.8 mph - 0.00 in   Overcast
11:17 PM 63.0 °F 61.0 °F 93% 29.88 in 10.0 mi SSW 9.2 mph - N/A   Overcast
11:37 PM 64.0 °F 61.0 °F 90% 29.88 in 10.0 mi SSW 8.1 mph - N/A   Overcast
11:53 PM 64.0 °F 61.0 °F 90% 29.87 in 10.0 mi SSW 8.1 mph - N/A   Overcast